GW2772 Weather Reports


time (UTC)temp
C
wind
direction
speed
KPH
gust
KPH
rain 1hr
cm
rain 24hr
cm
rain mn
cm
humidity
%
barometer
mb
20260507080308 13 79 0.0 0.0 0.00 0.00 0.00 84 1017.2
20260507075803 13 79 0.0 0.0 0.00 0.00 0.00 84 1017.2
20260507075300 13 79 0.0 0.0 0.00 0.00 0.00 84 1017.1
20260507074756 13 79 0.0 0.0 0.00 0.00 0.00 84 1017.0
20260507074255 13 79 0.0 0.0 0.00 0.00 0.00 84 1017.0
20260507073751 13 79 0.0 1.6 0.00 0.00 0.00 84 1016.8
20260507073248 13 55 0.0 0.0 0.00 0.00 0.00 84 1017.0
20260507072746 13 55 0.0 0.0 0.00 0.00 0.00 83 1017.0
20260507072243 13 55 0.0 0.0 0.00 0.00 0.00 83 1017.0
20260507071740 13 55 0.0 1.6 0.00 0.00 0.00 83 1017.1
20260507071236 13 25 0.0 0.0 0.00 0.00 0.00 83 1017.2
20260507070733 13 25 0.0 0.0 0.00 0.00 0.00 83 1017.3
20260507070230 13 25 0.0 1.6 0.00 0.00 0.00 83 1017.3
20260507065727 13 46 0.0 0.0 0.00 0.00 0.00 84 1017.2
20260507065224 13 110 0.0 0.0 0.00 0.00 0.00 84 1017.3
20260507064721 13 110 0.0 0.0 0.00 0.00 0.00 83 1017.3
20260507064220 13 110 0.0 1.6 0.00 0.00 0.00 83 1017.5
20260507063717 13 64 0.0 0.0 0.00 0.00 0.00 83 1017.3
20260507063214 13 64 0.0 0.0 0.00 0.00 0.00 83 1017.2
20260507062710 13 64 0.0 0.0 0.00 0.00 0.00 82 1017.4
20260507062208 13 64 0.0 0.0 0.00 0.00 0.00 83 1017.4
20260507061706 13 71 0.0 0.0 0.00 0.00 0.00 82 1017.5
20260507061204 13 71 0.0 1.6 0.00 0.00 0.00 82 1017.4
20260507060702 13 71 0.0 1.6 0.00 0.00 0.00 82 1017.5
20260507060158 13 91 0.0 0.0 0.00 0.00 0.00 83 1017.6
20260507055654 13 79 0.0 0.0 0.00 0.00 0.00 83 1017.4
20260507055149 13 79 0.0 0.0 0.00 0.00 0.00 83 1017.7
20260507054646 13 79 0.0 0.0 0.00 0.00 0.00 83 1017.5
20260507054143 13 79 0.0 0.0 0.00 0.00 0.00 83 1017.4
20260507053641 13 79 0.0 0.0 0.00 0.00 0.00 83 1017.3
20260507053138 13 79 0.0 0.0 0.00 0.00 0.00 83 1017.5
20260507052637 13 79 0.0 0.0 0.00 0.00 0.00 83 1017.4
20260507052132 13 79 0.0 0.0 0.00 0.00 0.00 83 1017.3
20260507051630 13 79 0.0 0.0 0.00 0.00 0.00 82 1017.4
20260507051127 13 79 0.0 0.0 0.00 0.00 0.00 82 1017.2
20260507050624 13 79 0.0 0.0 0.00 0.00 0.00 82 1017.5
20260507050120 13 79 0.0 0.0 0.00 0.00 0.00 82 1017.3
20260507045618 13 79 0.0 0.0 0.00 0.00 0.00 82 1017.2
20260507045114 14 79 0.0 0.0 0.00 0.00 0.00 81 1017.4
20260507044611 13 79 0.0 0.0 0.00 0.00 0.00 81 1017.4
20260507044108 14 79 0.0 0.0 0.00 0.00 0.00 81 1017.4
20260507043603 14 79 0.0 0.0 0.00 0.00 0.00 81 1017.5
20260507043101 14 79 0.0 0.0 0.00 0.00 0.00 82 1017.5
20260507042556 14 79 0.0 0.0 0.00 0.00 0.00 81 1017.4
20260507042052 14 79 0.0 0.0 0.00 0.00 0.00 81 1017.4
20260507041549 14 79 0.0 0.0 0.00 0.00 0.00 81 1017.5
20260507041046 14 79 0.0 0.0 0.00 0.00 0.00 80 1017.5
20260507040543 15 79 0.0 0.0 0.00 0.00 0.00 80 1017.3
20260507040039 15 79 0.0 1.6 0.00 0.00 0.00 80 1017.2
20260507035535 14 340 0.0 0.0 0.00 0.00 0.00 80 1017.3
20260507035032 15 340 0.0 0.0 0.00 0.00 0.00 80 1017.3
20260507034528 15 340 0.0 0.0 0.00 0.00 0.00 79 1017.1
20260507034026 15 340 0.0 0.0 0.00 0.00 0.00 79 1017.0
20260507033524 15 340 0.0 0.0 0.00 0.00 0.00 79 1016.9
20260507033021 15 340 0.0 1.6 0.00 0.00 0.00 79 1017.2
20260507032518 15 174 0.0 0.0 0.00 0.00 0.00 79 1017.2
20260507032014 15 174 0.0 3.2 0.00 0.00 0.00 78 1017.0
20260507031510 15 220 0.0 1.6 0.00 0.00 0.00 78 1017.2
20260507031008 15 42 0.0 0.0 0.00 0.00 0.00 78 1016.8
20260507030505 15 244 0.0 1.6 0.00 0.00 0.00 77 1016.9
20260507030003 16 251 0.0 0.0 0.00 0.00 0.00 77 1016.8
20260507025459 16 219 0.0 0.0 0.00 0.00 0.00 76 1016.6
20260507024957 16 223 0.0 0.0 0.00 0.00 0.00 76 1016.8
20260507024454 16 223 0.0 0.0 0.00 0.00 0.00 75 1016.7
20260507023950 16 223 0.0 0.0 0.00 0.00 0.00 74 1016.6
20260507023447 16 218 3.2 4.8 0.00 0.00 0.00 73 1016.7
20260507022944 17 190 0.0 4.8 0.00 0.00 0.00 73 1016.5
20260507022441 17 208 0.0 0.0 0.00 0.00 0.00 72 1016.5
20260507021936 17 205 3.2 3.2 0.00 0.00 0.00 71 1016.5
20260507021432 18 226 0.0 0.0 0.00 0.00 0.00 70 1016.3
20260507020930 18 190 0.0 3.2 0.00 0.00 0.00 69 1016.3
20260507020426 18 216 0.0 3.2 0.00 0.00 0.00 69 1016.3
20260507015923 18 205 0.0 3.2 0.00 0.00 0.00 68 1016.2
20260507015422 18 178 0.0 4.8 0.00 0.00 0.00 67 1016.3
20260507014919 18 160 3.2 6.4 0.00 0.00 0.00 68 1016.2
20260507014415 18 219 4.8 8.0 0.00 0.00 0.00 67 1016.5
20260507013911 18 262 4.8 4.8 0.00 0.00 0.00 66 1016.3
20260507013408 20 214 0.0 6.4 0.00 0.00 0.00 65 1015.9
20260507012906 20 211 0.0 4.8 0.00 0.00 0.00 64 1015.9
20260507012402 20 208 0.0 4.8 0.00 0.00 0.00 64 1016.1
20260507011859 20 354 0.0 4.8 0.00 0.00 0.00 63 1016.0
20260507011355 20 219 1.6 6.4 0.00 0.00 0.00 61 1016.1
20260507010849 20 205 3.2 3.2 0.00 0.00 0.00 62 1016.0
20260507010345 20 230 3.2 6.4 0.00 0.00 0.00 62 1016.2
20260507005843 20 252 3.2 8.0 0.00 0.00 0.00 60 1016.2
20260507005339 20 211 4.8 8.0 0.00 0.00 0.00 59 1016.1
20260507004836 21 213 0.0 6.4 0.00 0.00 0.00 57 1016.1
20260507004333 21 225 3.2 6.4 0.00 0.00 0.00 57 1016.0
20260507003830 21 244 0.0 12.9 0.00 0.00 0.00 55 1016.2
20260507003326 21 224 0.0 9.7 0.00 0.00 0.00 55 1015.8
20260507002821 22 208 4.8 8.0 0.00 0.00 0.00 53 1016.0
20260507002317 22 150 0.0 6.4 0.00 0.00 0.00 53 1015.9
20260507001815 23 250 0.0 8.0 0.00 0.00 0.00 52 1015.9
20260507001312 23 244 0.0 9.7 0.00 0.00 0.00 53 1015.7
20260507000808 23 222 0.0 8.0 0.00 0.00 0.00 52 1015.8
20260507000306 23 230 3.2 8.0 0.00 0.00 0.00 51 1015.6
20260506235801 23 240 0.0 8.0 0.00 0.00 0.00 51 1015.7
20260506235256 23 339 0.0 6.4 0.00 0.00 0.00 53 1015.8
20260506234754 22 206 8.0 9.7 0.00 0.00 0.00 52 1015.7
20260506234251 23 235 0.0 8.0 0.00 0.00 0.00 54 1015.9
20260506233748 21 219 6.4 14.5 0.00 0.00 0.00 54 1015.6
20260506233244 22 206 4.8 9.7 0.00 0.00 0.00 52 1015.7
20260506232741 23 241 1.6 6.4 0.00 0.00 0.00 51 1015.6
20260506232236 22 210 8.0 11.3 0.00 0.00 0.00 54 1015.8
20260506231733 22 208 4.8 9.7 0.00 0.00 0.00 56 1015.8
20260506231232 22 311 3.2 11.3 0.00 0.00 0.00 56 1015.4
20260506230728 22 184 6.4 11.3 0.00 0.00 0.00 56 1015.9
20260506230225 22 216 4.8 8.0 0.00 0.00 0.00 55 1015.8
20260506225721 23 205 0.0 11.3 0.00 0.00 0.00 53 1016.1
20260506225219 23 193 8.0 8.0 0.00 0.00 0.00 53 1016.0
20260506224715 23 235 0.0 6.4 0.00 0.00 0.00 55 1015.8
20260506224212 23 250 0.0 6.4 0.00 0.00 0.00 54 1016.1
20260506223709 22 192 8.0 14.5 0.00 0.00 0.00 58 1016.1
20260506223204 22 197 8.0 12.9 0.00 0.00 0.00 56 1016.3
20260506222702 22 271 1.6 11.3 0.00 0.00 0.00 58 1016.2
20260506222156 22 190 8.0 11.3 0.00 0.00 0.00 57 1016.5
20260506221655 22 213 3.2 11.3 0.00 0.00 0.00 58 1016.3
20260506221153 21 221 4.8 9.7 0.00 0.00 0.00 60 1016.3
20260506220649 22 255 0.0 8.0 0.00 0.00 0.00 58 1016.4
20260506220144 22 265 0.0 8.0 0.00 0.00 0.00 58 1016.5
20260506215641 22 213 0.0 8.0 0.00 0.00 0.00 59 1016.5
20260506215136 21 216 6.4 8.0 0.00 0.00 0.00 60 1016.5
20260506214634 21 249 8.0 8.0 0.00 0.00 0.00 59 1016.6
20260506214131 21 207 4.8 20.9 0.00 0.00 0.00 60 1016.7
20260506213630 21 186 3.2 12.9 0.00 0.00 0.00 62 1016.7
20260506213126 21 177 6.4 8.0 0.00 0.00 0.00 60 1016.6
20260506212624 21 213 3.2 14.5 0.00 0.00 0.00 63 1016.9
20260506212118 22 357 3.2 9.7 0.00 0.00 0.00 61 1016.8
20260506211614 21 190 8.0 12.9 0.00 0.00 0.00 60 1016.9
20260506211111 21 258 9.7 14.5 0.00 0.00 0.00 60 1016.9
20260506210608 22 245 4.8 9.7 0.00 0.00 0.00 62 1016.8
20260506210104 21 235 3.2 12.9 0.00 0.00 0.00 60 1016.9
20260506205601 21 177 8.0 9.7 0.00 0.00 0.00 61 1016.9
20260506205056 22 186 8.0 8.0 0.00 0.00 0.00 61 1016.9
20260506204555 21 216 11.3 11.3 0.00 0.00 0.00 60 1017.0
20260506204051 21 251 4.8 9.7 0.00 0.00 0.00 61 1017.1
20260506203550 21 208 1.6 9.7 0.00 0.00 0.00 62 1016.9
20260506203046 20 228 1.6 11.3 0.00 0.00 0.00 63 1017.1
20260506202544 21 203 8.0 16.1 0.00 0.00 0.00 61 1017.1
20260506202040 21 202 8.0 12.9 0.00 0.00 0.00 61 1017.1
20260506201538 21 299 0.0 14.5 0.00 0.00 0.00 60 1017.3
20260506201034 21 255 6.4 11.3 0.00 0.00 0.00 59 1017.0
20260506200530 21 272 3.2 6.4 0.00 0.00 0.00 59 1017.3
20260506200027 21 217 4.8 9.7 0.00 0.00 0.00 58 1017.2
20260506195524 21 210 3.2 16.1 0.00 0.00 0.00 56 1017.1
20260506195020 21 217 4.8 6.4 0.00 0.00 0.00 55 1017.4
20260506194518 21 208 6.4 14.5 0.00 0.00 0.00 55 1017.5
20260506194014 21 205 9.7 11.3 0.00 0.00 0.00 56 1017.7
20260506193512 21 226 3.2 8.0 0.00 0.00 0.00 55 1017.5
20260506193008 20 218 0.0 14.5 0.00 0.00 0.00 57 1017.5
20260506192505 21 235 3.2 6.4 0.00 0.00 0.00 57 1017.5
20260506192001 21 186 0.0 8.0 0.00 0.00 0.00 59 1017.6
20260506191458 20 212 4.8 12.9 0.00 0.00 0.00 57 1017.9
20260506190954 20 176 9.7 12.9 0.00 0.00 0.00 58 1017.5
20260506190451 20 208 4.8 12.9 0.00 0.00 0.00 58 1017.8
20260506185942 20 208 12.9 12.9 0.00 0.00 0.00 57 1017.9
20260506185440 21 344 0.0 3.2 0.00 0.00 0.00 59 1017.9
20260506184937 20 211 9.7 9.7 0.00 0.00 0.00 58 1017.9
20260506184433 20 228 4.8 4.8 0.00 0.00 0.00 61 1017.9
20260506183931 20 235 1.6 4.8 0.00 0.00 0.00 60 1017.9
20260506183426 20 201 4.8 8.0 0.00 0.00 0.00 60 1018.1
20260506182924 20 250 0.0 6.4 0.00 0.00 0.00 59 1017.9
20260506182421 19 235 1.6 6.4 0.00 0.00 0.00 62 1018.4
20260506181918 19 215 4.8 6.4 0.00 0.00 0.00 62 1018.3
20260506181416 18 197 8.0 9.7 0.00 0.00 0.00 62 1018.4
20260506180912 20 339 0.0 4.8 0.00 0.00 0.00 61 1018.2
20260506180409 19 242 1.6 3.2 0.00 0.00 0.00 63 1018.3
20260506175906 19 235 3.2 4.8 0.00 0.00 0.00 62 1018.2
20260506175402 19 40 0.0 3.2 0.00 0.00 0.00 63 1018.3
20260506174859 18 235 0.0 4.8 0.00 0.00 0.00 63 1018.4
20260506174357 18 325 0.0 1.6 0.00 0.00 0.00 63 1018.1
20260506173854 17 271 1.6 9.7 0.00 0.00 0.00 64 1018.4
20260506173350 17 220 3.2 6.4 0.00 0.00 0.00 67 1018.4
20260506172848 17 231 4.8 6.4 0.00 0.00 0.00 65 1018.2
20260506172344 18 320 0.0 4.8 0.00 0.00 0.00 65 1018.2
20260506171842 18 198 4.8 4.8 0.00 0.00 0.00 63 1018.4
20260506171339 19 77 0.0 3.2 0.00 0.00 0.00 62 1018.3
20260506170836 17 205 0.0 3.2 0.00 0.00 0.00 66 1018.3
20260506170332 16 163 0.0 4.8 0.00 0.00 0.00 68 1018.4
20260506165832 16 214 4.8 4.8 0.00 0.00 0.00 66 1018.3
20260506165329 17 235 0.0 3.2 0.00 0.00 0.00 63 1018.3
20260506164825 16 213 0.0 4.8 0.00 0.00 0.00 65 1018.4
20260506164322 16 265 3.2 4.8 0.00 0.00 0.00 67 1018.2
20260506163819 16 213 3.2 6.4 0.00 0.00 0.00 66 1018.5
20260506163314 17 161 0.0 3.2 0.00 0.00 0.00 65 1018.5
20260506162810 17 349 0.0 0.0 0.00 0.00 0.00 64 1018.5
20260506162308 16 349 0.0 3.2 0.00 0.00 0.00 69 1018.6
20260506161805 15 223 3.2 6.4 0.00 0.00 0.00 69 1018.6
20260506161302 15 185 0.0 3.2 0.00 0.00 0.00 68 1018.3
20260506160800 16 163 0.0 1.6 0.00 0.00 0.00 67 1018.4
20260506160256 16 163 0.0 3.2 0.00 0.00 0.00 64 1018.4
20260506155755 16 205 3.2 3.2 0.00 0.00 0.00 66 1018.5
20260506155251 15 155 0.0 0.0 0.00 0.00 0.00 68 1018.5
20260506153404 16 151 0.0 4.8 0.00 0.00 0.00 66 1018.4
20260506152901 15 159 0.0 4.8 0.00 0.00 0.00 72 1018.3
20260506152358 15 157 0.0 1.6 0.00 0.00 0.00 73 1018.3
20260506151857 15 119 0.0 3.2 0.00 0.00 0.00 70 1018.3
20260506151353 15 202 0.0 0.0 0.00 0.00 0.00 72 1018.3
20260506150851 14 226 0.0 0.0 0.00 0.00 0.00 74 1018.6
20260506150347 15 160 0.0 3.2 0.00 0.00 0.00 73 1018.6
20260506145844 15 125 0.0 0.0 0.00 0.00 0.00 70 1018.6
20260506145340 16 125 1.6 3.2 0.00 0.00 0.00 69 1018.5
20260506144838 15 219 0.0 0.0 0.00 0.00 0.00 71 1018.2
20260506144334 16 85 0.0 0.0 0.00 0.00 0.00 64 1018.2
20260506143833 18 85 0.0 0.0 0.00 0.00 0.00 65 1018.2
20260506143329 17 85 0.0 0.0 0.00 0.00 0.00 67 1018.3
20260506142828 16 85 0.0 0.0 0.00 0.00 0.00 72 1018.2
20260506142325 14 85 0.0 0.0 0.00 0.00 0.00 76 1018.1
20260506141823 13 85 0.0 0.0 0.00 0.00 0.00 79 1018.3
20260506141321 12 85 0.0 0.0 0.00 0.00 0.00 82 1018.3
20260506140819 10 79 1.6 1.6 0.00 0.00 0.00 83 1018.4
20260506140315 10 64 0.0 0.0 0.00 0.00 0.00 83 1018.1
20260506135813 10 64 0.0 0.0 0.00 0.00 0.00 82 1018.3
20260506135309 10 82 1.6 1.6 0.00 0.00 0.00 83 1017.9
20260506134806 10 71 0.0 1.6 0.00 0.00 0.00 83 1017.9
20260506134302 10 96 0.0 3.2 0.00 0.00 0.00 83 1017.8
20260506133759 10 91 0.0 1.6 0.00 0.00 0.00 83 1017.7
20260506133256 10 71 0.0 1.6 0.00 0.00 0.00 83 1017.6
20260506132753 10 85 0.0 3.2 0.00 0.00 0.00 84 1017.9
20260506132250 10 70 0.0 3.2 0.00 0.00 0.00 84 1017.4
20260506131748 10 92 3.2 3.2 0.00 0.00 0.00 84 1017.5
20260506131243 10 96 0.0 3.2 0.00 0.00 0.00 84 1017.6
20260506130740 10 72 3.2 3.2 0.00 0.00 0.00 83 1017.4
20260506130237 10 79 0.0 1.6 0.00 0.00 0.00 83 1017.5
20260506125735 10 71 0.0 1.6 0.00 0.00 0.00 83 1017.3
20260506125233 9 91 1.6 3.2 0.00 0.00 0.00 83 1017.5
20260506124731 9 79 1.6 3.2 0.00 0.00 0.00 84 1017.3
20260506124228 9 63 0.0 3.2 0.00 0.00 0.00 85 1017.3
20260506123726 9 110 1.6 1.6 0.00 0.00 0.00 85 1017.0
20260506123224 9 71 0.0 1.6 0.00 0.00 0.00 86 1017.2
20260506122721 9 85 1.6 3.2 0.00 0.00 0.00 86 1016.8
20260506122218 9 76 0.0 1.6 0.00 0.00 0.00 87 1017.0
20260506121716 9 70 0.0 1.6 0.00 0.00 0.00 88 1016.9
20260506121212 9 79 0.0 1.6 0.00 0.00 0.00 88 1017.1
20260506120710 9 68 0.0 1.6 0.00 0.00 0.00 88 1017.2
20260506120208 9 74 0.0 0.0 0.00 0.00 0.00 88 1017.1
20260506115706 9 74 0.0 1.6 0.00 0.00 0.00 88 1017.3
20260506115203 9 64 0.0 3.2 0.00 0.00 0.00 88 1017.0
20260506114701 9 79 0.0 1.6 0.00 0.00 0.00 89 1017.1
20260506114158 9 85 0.0 0.0 0.00 0.00 0.00 88 1017.2
20260506113657 10 68 0.0 3.2 0.00 0.00 0.00 89 1017.4
20260506113154 10 85 0.0 1.6 0.00 0.00 0.00 89 1017.1
20260506112649 10 71 0.0 1.6 0.00 0.00 0.00 89 1017.2
20260506112148 10 110 0.0 3.2 0.00 0.00 0.00 89 1016.8
20260506111645 9 79 0.0 1.6 0.00 0.00 0.00 89 1017.0
20260506111142 9 91 0.0 1.6 0.00 0.00 0.00 89 1017.0
20260506110640 9 79 0.0 0.0 0.00 0.00 0.00 88 1017.2
20260506110137 10 55 0.0 1.6 0.00 0.00 0.00 88 1017.2
20260506105633 10 76 1.6 3.2 0.00 0.00 0.00 88 1017.2
20260506105130 10 79 0.0 0.0 0.00 0.00 0.00 88 1017.0
20260506104629 10 79 0.0 1.6 0.00 0.00 0.00 88 1017.1
20260506104126 10 63 1.6 1.6 0.00 0.00 0.00 88 1017.0
20260506103623 9 76 0.0 1.6 0.00 0.00 0.00 87 1017.1
20260506103120 9 71 0.0 1.6 0.00 0.00 0.00 87 1017.3
20260506102618 9 64 0.0 1.6 0.00 0.00 0.00 87 1017.0
20260506102115 9 71 0.0 0.0 0.00 0.00 0.00 87 1017.0
20260506101612 9 71 0.0 3.2 0.00 0.00 0.00 87 1016.9
20260506101108 10 88 0.0 0.0 0.00 0.00 0.00 87 1017.0
20260506100607 10 74 0.0 1.6 0.00 0.00 0.00 87 1017.0
20260506100105 10 85 0.0 3.2 0.00 0.00 0.00 87 1017.0
20260506095603 10 70 0.0 0.0 0.00 0.00 0.00 87 1017.2
20260506095059 10 71 0.0 1.6 0.00 0.00 0.00 87 1016.9
20260506094557 10 62 0.0 1.6 0.00 0.00 0.00 87 1017.1
20260506094055 10 79 0.0 0.0 0.00 0.00 0.00 86 1017.0
20260506093553 10 79 0.0 1.6 0.00 0.00 0.00 86 1017.1
20260506093050 10 85 0.0 1.6 0.00 0.00 0.00 86 1017.1
20260506092548 10 85 0.0 1.6 0.00 0.00 0.00 86 1017.1
20260506092045 10 46 0.0 0.0 0.00 0.00 0.00 86 1017.2
20260506091543 10 46 0.0 0.0 0.00 0.00 0.00 85 1017.2
20260506091039 10 71 0.0 1.6 0.00 0.00 0.00 85 1017.2
20260506090537 10 64 0.0 1.6 0.00 0.00 0.00 85 1017.2
20260506090034 10 85 0.0 3.2 0.00 0.00 0.00 85 1017.2
20260506085531 10 85 0.0 3.2 0.00 0.00 0.00 84 1017.3
20260506085027 10 79 0.0 1.6 0.00 0.00 0.00 84 1017.3
20260506084524 10 137 0.0 0.0 0.00 0.00 0.00 84 1017.3
20260506084020 10 85 0.0 0.0 0.00 0.00 0.00 84 1017.2
20260506083517 10 85 0.0 1.6 0.00 0.00 0.00 84 1017.5
20260506083015 10 76 0.0 0.0 0.00 0.00 0.00 84 1017.6
20260506082511 10 76 0.0 0.0 0.00 0.00 0.00 85 1017.5
20260506082007 10 76 0.0 0.0 0.00 0.00 0.00 85 1017.7
20260506081506 10 76 0.0 0.0 0.00 0.00 0.00 85 1017.6
20260506081003 10 76 0.0 1.6 0.00 0.00 0.00 85 1017.6
20260506080500 9 47 0.0 0.0 0.00 0.00 0.00 86 1017.6